36.52977, -87.35945

Hourly Observations for October 10, 2018

Temp ( °F °C ) Dew Point ( °F °C ) Humidity (%) Winds ( mph kmh ) Pressure ( in mb ) Visibility ( mi km ) Precip ( " mm )
12:52 am 00:52 Cloudy with Rain 43 6.1 38 3.3 82 82 NNW 17 28 29.62 1003 4 6.437376 0.17 4.318
1:52 am 01:52 Cloudy with Light Rain 43 6.1 38 3.3 82 82 NNW 17 28 29.62 1003 6 9.656064 0.13 3.302
2:52 am 02:52 Cloudy with Light Rain 43 6.1 39 3.9 86 86 NW 12 19 29.59 1002 8 12.874752 0.08 2.032
3:39 am 03:39 Cloudy with Light Rain 43 6.1 40 4.4 89 89 NW 12 19 29.65 1004 8 12.874752 0.04 1.016
3:52 am 03:52 Cloudy with Light Rain 43 6.1 39 3.9 86 86 NNW 14 22 29.62 1003 10 16.09344 0.05 1.27
4:13 am 04:13 Cloudy with Light Rain 43 6.1 39 3.9 86 86 NW 13 20 29.65 1004 10 16.09344 0.001 0.001
4:24 am 04:24 Cloudy 43 6.1 39 3.9 86 86 NW 15 24 29.65 1004 10 16.09344 0.001 0.001
4:35 am 04:35 Cloudy with Light Rain 43 6.1 38 3.3 82 82 NNW 17 28 29.65 1004 10 16.09344 0.01 0.254
4:45 am 04:45 Cloudy with Light Rain 43 6.1 38 3.3 82 82 NW 14 22 29.65 1004 10 16.09344 0.01 0.254
4:52 am 04:52 Cloudy with Light Rain 43 6.1 39 3.9 86 86 NW 10 17 29.62 1003 10 16.09344 0.01 0.254
5:00 am 05:00 Cloudy with Light Rain 43 6.1 39 3.9 86 86 NNW 16 26 29.65 1004 10 16.09344 0.001 0.001
5:52 am 05:52 Cloudy with Light Rain 42 5.6 38 3.3 85 85 NW 14 22 29.65 1004 8 12.874752 0.02 0.508
6:52 am 06:52 Cloudy 41 5 38 3.3 89 89 NW 15 24 29.65 1004 10 16.09344 0.01 0.254
7:18 am 07:18 Cloudy with Light Rain 42 5.6 38 3.3 85 85 NW 16 26 29.68 1005 10 16.09344 0.001 0.001
7:52 am 07:52 Cloudy 42 5.6 38 3.3 85 85 NW 16 26 29.68 1005 10 16.09344 0.001 0.001
8:03 am 08:03 Cloudy 42 5.6 38 3.3 85 85 NW 14 22 29.71 1006 10 16.09344 0 0
8:52 am 08:52 Cloudy 43 6.1 39 3.9 86 86 NW 14 22 29.71 1006 10 16.09344 0 0
9:16 am 09:16 Cloudy 43 6.1 38 3.3 82 82 NW 15 24 29.71 1006 10 16.09344 0 0
9:26 am 09:26 Cloudy 43 6.1 39 3.9 86 86 NW 15 24 29.74 1007 10 16.09344 0 0
9:36 am 09:36 Cloudy 44 6.7 38 3.3 79 79 NW 16 26 29.74 1007 10 16.09344 0 0
9:52 am 09:52 Cloudy with Mist and Fog 43 6.1 39 3.9 86 86 WNW 13 20 29.74 1007 5 8.04672 0 0
10:07 am 10:07 Cloudy with Mist and Fog 43 6.1 39 3.9 86 86 NW 18 30 29.74 1007 6 9.656064 0 0
10:52 am 10:52 Cloudy 45 7.2 37 2.8 74 74 NW 14 22 29.77 1008 10 16.09344 0 0
11:24 am 11:24 Cloudy 46 7.8 37 2.8 71 71 NW 10 17 29.77 1008 10 16.09344 0 0
11:52 am 11:52 Cloudy 48 8.9 38 3.3 68 68 NNW 12 19 29.77 1008 10 16.09344 0 0
12:52 pm 12:52 Cloudy 52 11.1 40 4.4 64 64 N 6 9 29.77 1008 10 16.09344 0 0
1:52 pm 13:52 Cloudy 53 11.7 41 5 64 64 NNE 7 11 29.77 1008 10 16.09344 0 0
2:52 pm 14:52 Mostly Cloudy 56 13.3 42 5.6 60 60 VRB 3 6 29.8 1009 10 16.09344 0 0
3:52 pm 15:52 Mostly Sunny 59 15 41 5 51 51 N 9 15 29.77 1008 10 16.09344 0 0
4:52 pm 16:52 Mostly Sunny 62 16.7 34 1.1 35 35 NW 14 22 29.8 1009 10 16.09344 0 0
5:52 pm 17:52 Sunny 62 16.7 32 0 32 32 NW 15 24 29.83 1010 10 16.09344 0 0
6:52 pm 18:52 Sunny 60 15.6 31 -0.6 33 33 NW 13 20 29.83 1010 10 16.09344 0 0
7:52 pm 19:52 Clear 57 13.9 31 -0.6 37 37 WNW 6 9 29.85 1011 10 16.09344 0 0
8:52 pm 20:52 Clear 52 11.1 35 1.7 53 53 W 5 7 29.88 1012 10 16.09344 0 0
9:52 pm 21:52 Clear 50 10 33 0.6 52 52 W 7 11 29.91 1013 10 16.09344 0 0
10:52 pm 22:52 Clear 44 6.7 37 2.8 76 76 W 3 6 29.91 1013 10 16.09344 0 0
11:52 pm 23:52 Clear 43 6.1 36 2.2 76 76 Calm 29.91 1013 10 16.09344 0 0

Powered by AerisWeather